Location: Calvin Observatory
(42.9309°N, 85.5886°W)
Time: 21:05:30
(UTC-04:00)

ISS - Visible Passes

Search period start: 18 April 2015 00:00
Search period end: 28 April 2015 00:00
Orbit: 396 x 403 km, 51.6° (Epoch: 18 April)

Date Brightness Start Highest point End Pass type
(mag) Time Alt. Az. Time Alt. Az. Time Alt. Az.
18 Apr -2.6 21:19:50 10° NW 21:22:58 42° NNE 21:25:23 15° E visible
18 Apr -1.0 22:56:26 10° WNW 22:57:56 20° W 22:57:56 20° W visible
19 Apr -2.9 22:02:15 10° WNW 22:05:26 52° SW 22:06:14 40° S visible
20 Apr -3.3 21:08:14 10° NW 21:11:30 81° NNE 21:14:31 12° ESE visible
20 Apr -0.6 22:45:56 10° WSW 22:47:05 12° WSW 22:47:05 12° WSW visible
21 Apr -1.5 21:50:57 10° W 21:53:39 24° SW 21:55:23 16° S visible
23 Apr -0.5 21:40:25 10° WSW 21:41:33 11° SW 21:42:34 10° SSW visible
